Location: Geçitköy
(36.7327°N, 29.8010°E)
Time: 20:07:48
(UTC+00:00)

Cosmos 909 Rocket - Pass Details

Date: 12 January 2026
Orbit: 992 x 2087 km, 65.9° (Epoch: 11 February)

Event Time Altitude Azimuth Distance (km) Brightness Sun altitude
Rises 17:17:07 0° 193° (SSW) 4,716 7.8 -25.9°
Reaches altitude 10° 17:20:26 10° 190° (S) 3,574 7.1 -26.6°
Enters shadow 17:28:36 57° 116° (ESE) 1,426 4.5 -28.2°
